Year,Month,Day,Hour,Minute,Value (Times are PST for temperature in C)
2014,07,17,00,00,18.00
2014,07,17,00,01,18.00
2014,07,17,00,02,18.00
2014,07,17,00,03,18.00
2014,07,17,00,04,17.90
2014,07,17,00,05,17.90
2014,07,17,00,06,17.90
2014,07,17,00,07,17.90
2014,07,17,00,08,17.90
2014,07,17,00,09,17.80
2014,07,17,00,10,17.80
2014,07,17,00,11,17.80
2014,07,17,00,12,17.80
2014,07,17,00,13,17.80
2014,07,17,00,14,17.80
2014,07,17,00,15,17.80
2014,07,17,00,16,17.80
2014,07,17,00,17,17.80
2014,07,17,00,18,17.70
2014,07,17,00,19,17.70
2014,07,17,00,20,17.60
2014,07,17,00,21,17.60
2014,07,17,00,22,17.50
2014,07,17,00,23,17.50
2014,07,17,00,24,17.40
2014,07,17,00,25,17.40
2014,07,17,00,26,17.40
2014,07,17,00,27,17.30
2014,07,17,00,28,17.30
2014,07,17,00,29,17.30
2014,07,17,00,30,17.30
2014,07,17,00,31,17.20
2014,07,17,00,32,17.20
2014,07,17,00,33,17.20
2014,07,17,00,34,17.20
2014,07,17,00,35,17.30
2014,07,17,00,36,17.30
2014,07,17,00,37,17.30
2014,07,17,00,38,17.30
2014,07,17,00,39,17.30
2014,07,17,00,40,17.40
2014,07,17,00,41,17.40
2014,07,17,00,42,17.40
2014,07,17,00,43,17.30
2014,07,17,00,44,17.30
2014,07,17,00,45,17.30
2014,07,17,00,46,17.20
2014,07,17,00,47,17.20
2014,07,17,00,48,17.20
2014,07,17,00,49,17.10
2014,07,17,00,50,17.10
2014,07,17,00,51,17.10
2014,07,17,00,52,17.00
2014,07,17,00,53,17.00
2014,07,17,00,54,16.90
2014,07,17,00,55,16.90
2014,07,17,00,56,16.90
2014,07,17,00,57,16.90
2014,07,17,00,58,16.80
2014,07,17,00,59,16.80
2014,07,17,01,00,16.80
2014,07,17,01,01,16.80
2014,07,17,01,02,16.80
2014,07,17,01,03,16.80
2014,07,17,01,04,16.80
2014,07,17,01,05,16.80
2014,07,17,01,06,16.80
2014,07,17,01,07,16.80
2014,07,17,01,08,16.80
2014,07,17,01,09,16.80
2014,07,17,01,10,16.80
2014,07,17,01,11,16.80
2014,07,17,01,12,16.80
2014,07,17,01,13,16.70
2014,07,17,01,14,16.70
2014,07,17,01,15,16.70
2014,07,17,01,16,16.70
2014,07,17,01,17,16.70
2014,07,17,01,18,16.70
2014,07,17,01,19,16.60
2014,07,17,01,20,16.60
2014,07,17,01,21,16.60
2014,07,17,01,22,16.60
2014,07,17,01,23,16.60
2014,07,17,01,24,16.60
2014,07,17,01,25,16.60
2014,07,17,01,26,16.50
2014,07,17,01,27,16.50
2014,07,17,01,28,16.50
2014,07,17,01,29,16.50
2014,07,17,01,30,16.50
2014,07,17,01,31,16.50
2014,07,17,01,32,16.50
2014,07,17,01,33,16.50
2014,07,17,01,34,16.50
2014,07,17,01,35,16.50
2014,07,17,01,36,16.50
2014,07,17,01,37,16.50
2014,07,17,01,38,16.50
2014,07,17,01,39,16.50
2014,07,17,01,40,16.60
2014,07,17,01,41,16.60
2014,07,17,01,42,16.60
2014,07,17,01,43,16.60
2014,07,17,01,44,16.60
2014,07,17,01,45,16.60
2014,07,17,01,46,16.60
2014,07,17,01,47,16.60
2014,07,17,01,48,16.60
2014,07,17,01,49,16.60
2014,07,17,01,50,16.60
2014,07,17,01,51,16.60
2014,07,17,01,52,16.60
2014,07,17,01,53,16.60
2014,07,17,01,54,16.50
2014,07,17,01,55,16.50
2014,07,17,01,56,16.50
2014,07,17,01,57,16.50
2014,07,17,01,58,16.50
2014,07,17,01,59,16.50
2014,07,17,02,00,16.40
2014,07,17,02,01,16.40
2014,07,17,02,02,16.40
2014,07,17,02,03,16.30
2014,07,17,02,04,16.30
2014,07,17,02,05,16.20
2014,07,17,02,06,16.20
2014,07,17,02,07,16.10
2014,07,17,02,08,16.10
2014,07,17,02,09,16.00
2014,07,17,02,10,16.00
2014,07,17,02,11,15.90
2014,07,17,02,12,15.90
2014,07,17,02,13,15.80
2014,07,17,02,14,15.80
2014,07,17,02,15,15.80
2014,07,17,02,16,15.80
2014,07,17,02,17,15.70
2014,07,17,02,18,15.70
2014,07,17,02,19,15.70
2014,07,17,02,20,15.70
2014,07,17,02,21,15.70
2014,07,17,02,22,15.60
2014,07,17,02,23,15.50
2014,07,17,02,24,15.50
2014,07,17,02,25,15.40
2014,07,17,02,26,15.30
2014,07,17,02,27,15.30
2014,07,17,02,28,15.30
2014,07,17,02,29,15.20
2014,07,17,02,30,15.20
2014,07,17,02,31,15.20
2014,07,17,02,32,15.20
2014,07,17,02,33,15.20
2014,07,17,02,34,15.10
2014,07,17,02,35,15.10
2014,07,17,02,36,15.10
2014,07,17,02,37,15.10
2014,07,17,02,38,15.20
2014,07,17,02,39,15.20
2014,07,17,02,40,15.20
2014,07,17,02,41,15.20
2014,07,17,02,42,15.20
2014,07,17,02,43,15.20
2014,07,17,02,44,15.20
2014,07,17,02,45,15.20
2014,07,17,02,46,15.20
2014,07,17,02,47,15.20
2014,07,17,02,48,15.20
2014,07,17,02,49,15.20
2014,07,17,02,50,15.20
2014,07,17,02,51,15.20
2014,07,17,02,52,15.20
2014,07,17,02,53,15.10
2014,07,17,02,54,15.10
2014,07,17,02,55,15.10
2014,07,17,02,56,15.10
2014,07,17,02,57,15.10
2014,07,17,02,58,15.10
2014,07,17,02,59,15.00
2014,07,17,03,00,15.00
2014,07,17,03,01,14.90
2014,07,17,03,02,14.90
2014,07,17,03,03,14.80
2014,07,17,03,04,14.80
2014,07,17,03,05,14.80
2014,07,17,03,06,14.80
2014,07,17,03,07,14.70
2014,07,17,03,08,14.70
2014,07,17,03,09,14.70
2014,07,17,03,10,14.70
2014,07,17,03,11,14.70
2014,07,17,03,12,14.60
2014,07,17,03,13,14.60
2014,07,17,03,14,14.60
2014,07,17,03,15,14.60
2014,07,17,03,16,14.60
2014,07,17,03,17,14.60
2014,07,17,03,18,14.60
2014,07,17,03,19,14.60
2014,07,17,03,20,14.60
2014,07,17,03,21,14.60
2014,07,17,03,22,14.60
2014,07,17,03,23,14.60
2014,07,17,03,24,14.60
2014,07,17,03,25,14.50
2014,07,17,03,26,14.40
2014,07,17,03,27,14.40
2014,07,17,03,28,14.30
2014,07,17,03,29,14.20
2014,07,17,03,30,14.20
2014,07,17,03,31,14.20
2014,07,17,03,32,14.10
2014,07,17,03,33,14.10
2014,07,17,03,34,14.10
2014,07,17,03,35,14.10
2014,07,17,03,36,14.20
2014,07,17,03,37,14.20
2014,07,17,03,38,14.20
2014,07,17,03,39,14.20
2014,07,17,03,40,14.20
2014,07,17,03,41,14.20
2014,07,17,03,42,14.20
2014,07,17,03,43,14.20
2014,07,17,03,44,14.20
2014,07,17,03,45,14.20
2014,07,17,03,46,14.20
2014,07,17,03,47,14.10
2014,07,17,03,48,14.10
2014,07,17,03,49,14.00
2014,07,17,03,50,14.00
2014,07,17,03,51,13.90
2014,07,17,03,52,13.90
2014,07,17,03,53,13.80
2014,07,17,03,54,13.80
2014,07,17,03,55,13.70
2014,07,17,03,56,13.70
2014,07,17,03,57,13.60
2014,07,17,03,58,13.50
2014,07,17,03,59,13.50
2014,07,17,04,00,13.40
2014,07,17,04,01,13.30
2014,07,17,04,02,13.20
2014,07,17,04,03,13.20
2014,07,17,04,04,13.20
2014,07,17,04,05,13.10
2014,07,17,04,06,13.10
2014,07,17,04,07,13.10
2014,07,17,04,08,13.00
2014,07,17,04,09,13.00
2014,07,17,04,10,12.90
2014,07,17,04,11,12.90
2014,07,17,04,12,12.90
2014,07,17,04,13,12.90
2014,07,17,04,14,12.90
2014,07,17,04,15,12.90
2014,07,17,04,16,12.90
2014,07,17,04,17,12.90
2014,07,17,04,18,12.90
2014,07,17,04,19,12.80
2014,07,17,04,20,12.80
2014,07,17,04,21,12.70
2014,07,17,04,22,12.70
2014,07,17,04,23,12.70
2014,07,17,04,24,12.60
2014,07,17,04,25,12.60
2014,07,17,04,26,12.60
2014,07,17,04,27,12.60
2014,07,17,04,28,12.60
2014,07,17,04,29,12.60
2014,07,17,04,30,12.50
2014,07,17,04,31,12.50
2014,07,17,04,32,12.50
2014,07,17,04,33,12.50
2014,07,17,04,34,12.50
2014,07,17,04,35,12.40
2014,07,17,04,36,12.40
2014,07,17,04,37,12.40
2014,07,17,04,38,12.40
2014,07,17,04,39,12.40
2014,07,17,04,40,12.40
2014,07,17,04,41,12.40
2014,07,17,04,42,12.50
2014,07,17,04,43,12.50
2014,07,17,04,44,12.50
2014,07,17,04,45,12.60
2014,07,17,04,46,12.60
2014,07,17,04,47,12.60
2014,07,17,04,48,12.60
2014,07,17,04,49,12.60
2014,07,17,04,50,12.60
2014,07,17,04,51,12.60
2014,07,17,04,52,12.50
2014,07,17,04,53,12.50
2014,07,17,04,54,12.50
2014,07,17,04,55,12.40
2014,07,17,04,56,12.40
2014,07,17,04,57,12.40
2014,07,17,04,58,12.40
2014,07,17,04,59,12.30
2014,07,17,05,00,12.30
2014,07,17,05,01,12.20
2014,07,17,05,02,12.20
2014,07,17,05,03,12.20
2014,07,17,05,04,12.10
2014,07,17,05,05,12.10
2014,07,17,05,06,12.00
2014,07,17,05,07,12.00
2014,07,17,05,08,12.00
2014,07,17,05,09,11.90
2014,07,17,05,10,11.90
2014,07,17,05,11,11.90
2014,07,17,05,12,11.90
2014,07,17,05,13,11.80
2014,07,17,05,14,11.80
2014,07,17,05,15,11.80
2014,07,17,05,16,11.70
2014,07,17,05,17,11.70
2014,07,17,05,18,11.70
2014,07,17,05,19,11.70
2014,07,17,05,20,11.60
2014,07,17,05,21,11.70
2014,07,17,05,22,11.70
2014,07,17,05,23,11.70
2014,07,17,05,24,11.70
2014,07,17,05,25,11.70
2014,07,17,05,26,11.70
2014,07,17,05,27,11.70
2014,07,17,05,28,11.70
2014,07,17,05,29,11.70
2014,07,17,05,30,11.70
2014,07,17,05,31,11.70
2014,07,17,05,32,11.70
2014,07,17,05,33,11.70
2014,07,17,05,34,11.60
2014,07,17,05,35,11.60
2014,07,17,05,36,11.60
2014,07,17,05,37,11.60
2014,07,17,05,38,11.60
2014,07,17,05,39,11.60
2014,07,17,05,40,11.60
2014,07,17,05,41,11.60
2014,07,17,05,42,11.60
2014,07,17,05,43,11.60
2014,07,17,05,44,11.60
2014,07,17,05,45,11.70
2014,07,17,05,46,11.70
2014,07,17,05,47,11.70
2014,07,17,05,48,11.70
2014,07,17,05,49,11.70
2014,07,17,05,50,11.70
2014,07,17,05,51,11.70
2014,07,17,05,52,11.70
2014,07,17,05,53,11.70
2014,07,17,05,54,11.70
2014,07,17,05,55,11.70
2014,07,17,05,56,11.70
2014,07,17,05,57,11.70
2014,07,17,05,58,11.70
2014,07,17,05,59,11.70
2014,07,17,06,00,11.70
2014,07,17,06,01,11.80
2014,07,17,06,02,11.80
2014,07,17,06,03,11.80
2014,07,17,06,04,11.80
2014,07,17,06,05,11.90
2014,07,17,06,06,11.90
2014,07,17,06,07,11.90
2014,07,17,06,08,11.90
2014,07,17,06,09,11.90
2014,07,17,06,10,11.90
2014,07,17,06,11,11.90
2014,07,17,06,12,11.90
2014,07,17,06,13,11.90
2014,07,17,06,14,11.90
2014,07,17,06,15,12.00
2014,07,17,06,16,12.00
2014,07,17,06,17,12.00
2014,07,17,06,18,12.10
2014,07,17,06,19,12.10
2014,07,17,06,20,12.20
2014,07,17,06,21,12.20
2014,07,17,06,22,12.30
2014,07,17,06,23,12.30
2014,07,17,06,24,12.40
2014,07,17,06,25,12.40
2014,07,17,06,26,12.50
2014,07,17,06,27,12.60
2014,07,17,06,28,12.60
2014,07,17,06,29,12.70
2014,07,17,06,30,12.70
2014,07,17,06,31,12.70
2014,07,17,06,32,12.70
2014,07,17,06,33,12.70
2014,07,17,06,34,12.70
2014,07,17,06,35,12.70
2014,07,17,06,36,12.70
2014,07,17,06,37,12.70
2014,07,17,06,38,12.70
2014,07,17,06,39,12.80
2014,07,17,06,40,12.80
2014,07,17,06,41,12.80
2014,07,17,06,42,12.80
2014,07,17,06,43,12.90
2014,07,17,06,44,12.90
2014,07,17,06,45,13.00
2014,07,17,06,46,13.00
2014,07,17,06,47,13.10
2014,07,17,06,48,13.20
2014,07,17,06,49,13.20
2014,07,17,06,50,13.30
2014,07,17,06,51,13.30
2014,07,17,06,52,13.30
2014,07,17,06,53,13.20
2014,07,17,06,54,13.20
2014,07,17,06,55,13.20
2014,07,17,06,56,13.20
2014,07,17,06,57,13.30
2014,07,17,06,58,13.30
2014,07,17,06,59,13.30
2014,07,17,07,00,13.30
2014,07,17,07,01,13.30
2014,07,17,07,02,13.30
2014,07,17,07,03,13.30
2014,07,17,07,04,13.30
2014,07,17,07,05,13.30
2014,07,17,07,06,13.20
2014,07,17,07,07,13.20
2014,07,17,07,08,13.20
2014,07,17,07,09,13.20
2014,07,17,07,10,13.20
2014,07,17,07,11,13.20
2014,07,17,07,12,13.20
2014,07,17,07,13,13.20
2014,07,17,07,14,13.30
2014,07,17,07,15,13.30
2014,07,17,07,16,13.30
2014,07,17,07,17,13.30
2014,07,17,07,18,13.30
2014,07,17,07,19,13.30
2014,07,17,07,20,13.30
2014,07,17,07,21,13.30
2014,07,17,07,22,13.30
2014,07,17,07,23,13.30
2014,07,17,07,24,13.30
2014,07,17,07,25,13.40
2014,07,17,07,26,13.40
2014,07,17,07,27,13.40
2014,07,17,07,28,13.40
2014,07,17,07,29,13.50
2014,07,17,07,30,13.50
2014,07,17,07,31,13.40
2014,07,17,07,32,13.40
2014,07,17,07,33,13.40
2014,07,17,07,34,13.40
2014,07,17,07,35,13.50
2014,07,17,07,36,13.60
2014,07,17,07,37,13.60
2014,07,17,07,38,13.70
2014,07,17,07,39,13.70
2014,07,17,07,40,13.70
2014,07,17,07,41,13.70
2014,07,17,07,42,13.70
2014,07,17,07,43,13.70
2014,07,17,07,44,13.70
2014,07,17,07,45,13.70
2014,07,17,07,46,13.70
2014,07,17,07,47,13.70
2014,07,17,07,48,13.60
2014,07,17,07,49,13.60
2014,07,17,07,50,13.70
2014,07,17,07,51,13.70
2014,07,17,07,52,13.80
2014,07,17,07,53,13.90
2014,07,17,07,54,14.00
2014,07,17,07,55,14.00
2014,07,17,07,56,14.10
2014,07,17,07,57,14.10
2014,07,17,07,58,14.10
2014,07,17,07,59,14.10
2014,07,17,08,00,14.10
2014,07,17,08,01,14.20
2014,07,17,08,02,14.20
2014,07,17,08,03,14.20
2014,07,17,08,04,14.10
2014,07,17,08,05,14.10
2014,07,17,08,06,14.10
2014,07,17,08,07,14.10
2014,07,17,08,08,14.10
2014,07,17,08,09,14.10
2014,07,17,08,10,14.10
2014,07,17,08,11,14.10
2014,07,17,08,12,14.30
2014,07,17,08,13,14.40
2014,07,17,08,14,14.50
2014,07,17,08,15,14.60
2014,07,17,08,16,14.60
2014,07,17,08,17,14.70
2014,07,17,08,18,14.80
2014,07,17,08,19,14.80
2014,07,17,08,20,14.80
2014,07,17,08,21,14.80
2014,07,17,08,22,14.70
2014,07,17,08,23,14.60
2014,07,17,08,24,14.60
2014,07,17,08,25,14.60
2014,07,17,08,26,14.70
2014,07,17,08,27,14.60
2014,07,17,08,28,14.60
2014,07,17,08,29,14.60
2014,07,17,08,30,14.60
2014,07,17,08,31,14.60
2014,07,17,08,32,14.80
2014,07,17,08,33,14.90
2014,07,17,08,34,15.00
2014,07,17,08,35,15.10
2014,07,17,08,36,15.10
2014,07,17,08,37,15.20
2014,07,17,08,38,15.40
2014,07,17,08,39,15.50
2014,07,17,08,40,15.60
2014,07,17,08,41,15.70
2014,07,17,08,42,15.70
2014,07,17,08,43,15.70
2014,07,17,08,44,15.70
2014,07,17,08,45,15.70
2014,07,17,08,46,15.80
2014,07,17,08,47,15.80
2014,07,17,08,48,15.80
2014,07,17,08,49,15.80
2014,07,17,08,50,15.70
2014,07,17,08,51,15.70
2014,07,17,08,52,15.70
2014,07,17,08,53,15.70
2014,07,17,08,54,15.70
2014,07,17,08,55,15.70
2014,07,17,08,56,15.80
2014,07,17,08,57,15.80
2014,07,17,08,58,15.90
2014,07,17,08,59,16.00
2014,07,17,09,00,16.10
2014,07,17,09,01,16.10
2014,07,17,09,02,16.10
2014,07,17,09,03,16.10
2014,07,17,09,04,16.10
2014,07,17,09,05,16.20
2014,07,17,09,06,16.30
2014,07,17,09,07,16.30
2014,07,17,09,08,16.40
2014,07,17,09,09,16.50
2014,07,17,09,10,16.60
2014,07,17,09,11,16.60
2014,07,17,09,12,16.70
2014,07,17,09,13,16.70
2014,07,17,09,14,16.80
2014,07,17,09,15,16.80
2014,07,17,09,16,16.70
2014,07,17,09,17,16.70
2014,07,17,09,18,16.60
2014,07,17,09,19,16.60
2014,07,17,09,20,16.60
2014,07,17,09,21,16.60
2014,07,17,09,22,16.60
2014,07,17,09,23,16.60
2014,07,17,09,24,16.70
2014,07,17,09,25,16.90
2014,07,17,09,26,17.00
2014,07,17,09,27,17.00
2014,07,17,09,28,16.90
2014,07,17,09,29,16.90
2014,07,17,09,30,16.90
2014,07,17,09,31,16.90
2014,07,17,09,32,16.90
2014,07,17,09,33,16.80
2014,07,17,09,34,16.80
2014,07,17,09,35,16.80
2014,07,17,09,36,16.80
2014,07,17,09,37,16.80
2014,07,17,09,38,16.80
2014,07,17,09,39,16.80
2014,07,17,09,40,16.80
2014,07,17,09,41,17.00
2014,07,17,09,42,17.00
2014,07,17,09,43,17.10
2014,07,17,09,44,17.10
2014,07,17,09,45,17.10
2014,07,17,09,46,17.10
2014,07,17,09,47,17.20
2014,07,17,09,48,17.40
2014,07,17,09,49,17.60
2014,07,17,09,50,17.80
2014,07,17,09,51,17.90
2014,07,17,09,52,18.00
2014,07,17,09,53,18.00
2014,07,17,09,54,18.00
2014,07,17,09,55,18.10
2014,07,17,09,56,18.10
2014,07,17,09,57,18.00
2014,07,17,09,58,18.00
2014,07,17,09,59,18.00
2014,07,17,10,00,18.00
2014,07,17,10,01,18.00
2014,07,17,10,02,18.00
2014,07,17,10,03,18.00
2014,07,17,10,04,18.00
2014,07,17,10,05,18.10
2014,07,17,10,06,18.20
2014,07,17,10,07,18.20
2014,07,17,10,08,18.10
2014,07,17,10,09,18.20
2014,07,17,10,10,18.20
2014,07,17,10,11,18.20
2014,07,17,10,12,18.10
2014,07,17,10,13,18.10
2014,07,17,10,14,18.10
2014,07,17,10,15,18.20
2014,07,17,10,16,18.20
2014,07,17,10,17,18.20
2014,07,17,10,18,18.10
2014,07,17,10,19,18.00
2014,07,17,10,20,17.90
2014,07,17,10,21,17.80
2014,07,17,10,22,17.60
2014,07,17,10,23,17.50
2014,07,17,10,24,17.40
2014,07,17,10,25,17.30
2014,07,17,10,26,17.30
2014,07,17,10,27,17.30
2014,07,17,10,28,17.30
2014,07,17,10,29,17.30
2014,07,17,10,30,17.50
2014,07,17,10,31,17.60
2014,07,17,10,32,17.60
2014,07,17,10,33,17.60
2014,07,17,10,34,17.60
2014,07,17,10,35,17.60
2014,07,17,10,36,17.60
2014,07,17,10,37,17.60
2014,07,17,10,38,17.70
2014,07,17,10,39,17.80
2014,07,17,10,40,17.90
2014,07,17,10,41,18.10
2014,07,17,10,42,18.10
2014,07,17,10,43,18.10
2014,07,17,10,44,18.00
2014,07,17,10,45,18.00
2014,07,17,10,46,18.00
2014,07,17,10,47,18.10
2014,07,17,10,48,18.00
2014,07,17,10,49,17.90
2014,07,17,10,50,17.90
2014,07,17,10,51,17.80
2014,07,17,10,52,17.70
2014,07,17,10,53,17.70
2014,07,17,10,54,17.70
2014,07,17,10,55,17.80
2014,07,17,10,56,17.80
2014,07,17,10,57,17.80
2014,07,17,10,58,17.80
2014,07,17,10,59,17.80
2014,07,17,11,00,17.80
2014,07,17,11,01,17.70
2014,07,17,11,02,17.80
2014,07,17,11,03,17.90
2014,07,17,11,04,17.90
2014,07,17,11,05,17.80
2014,07,17,11,06,17.80
2014,07,17,11,07,17.80
2014,07,17,11,08,17.90
2014,07,17,11,09,17.80
2014,07,17,11,10,17.70
2014,07,17,11,11,17.70
2014,07,17,11,12,17.70
2014,07,17,11,13,17.70
2014,07,17,11,14,17.80
2014,07,17,11,15,17.80
2014,07,17,11,16,17.80
2014,07,17,11,17,17.90
2014,07,17,11,18,17.90
2014,07,17,11,19,17.90
2014,07,17,11,20,17.80
2014,07,17,11,21,17.70
2014,07,17,11,22,17.60
2014,07,17,11,23,17.60
2014,07,17,11,24,17.60
2014,07,17,11,25,17.70
2014,07,17,11,26,17.70
2014,07,17,11,27,17.60
2014,07,17,11,28,17.60
2014,07,17,11,29,17.70
2014,07,17,11,30,17.60
2014,07,17,11,31,17.60
2014,07,17,11,32,17.70
2014,07,17,11,33,17.70
2014,07,17,11,34,17.80
2014,07,17,11,35,17.90
2014,07,17,11,36,17.90
2014,07,17,11,37,17.90
2014,07,17,11,38,17.90
2014,07,17,11,39,18.10
2014,07,17,11,40,18.20
2014,07,17,11,41,18.30
2014,07,17,11,42,18.30
2014,07,17,11,43,18.20
2014,07,17,11,44,18.00
2014,07,17,11,45,17.90
2014,07,17,11,46,17.90
2014,07,17,11,47,17.90
2014,07,17,11,48,18.00
2014,07,17,11,49,17.90
2014,07,17,11,50,17.90
2014,07,17,11,51,18.00
2014,07,17,11,52,18.10
2014,07,17,11,53,18.10
2014,07,17,11,54,18.00
2014,07,17,11,55,18.00
2014,07,17,11,56,18.00
2014,07,17,11,57,17.90
2014,07,17,11,58,18.10
2014,07,17,11,59,18.20
2014,07,17,12,00,18.30
2014,07,17,12,01,18.30
2014,07,17,12,02,18.10
2014,07,17,12,03,17.90
2014,07,17,12,04,17.80
2014,07,17,12,05,17.90
2014,07,17,12,06,18.00
2014,07,17,12,07,18.10
2014,07,17,12,08,18.00
2014,07,17,12,09,18.10
2014,07,17,12,10,18.10
2014,07,17,12,11,17.90
2014,07,17,12,12,17.80
2014,07,17,12,13,17.80
2014,07,17,12,14,17.80
2014,07,17,12,15,17.80
2014,07,17,12,16,17.90
2014,07,17,12,17,18.10
2014,07,17,12,18,18.10
2014,07,17,12,19,18.00
2014,07,17,12,20,18.00
2014,07,17,12,21,18.00
2014,07,17,12,22,18.10
2014,07,17,12,23,18.00
2014,07,17,12,24,18.00
2014,07,17,12,25,18.00
2014,07,17,12,26,18.10
2014,07,17,12,27,18.10
2014,07,17,12,28,18.30
2014,07,17,12,29,18.30
2014,07,17,12,30,18.20
2014,07,17,12,31,18.10
2014,07,17,12,32,18.20
2014,07,17,12,33,18.20
2014,07,17,12,34,18.30
2014,07,17,12,35,18.30
2014,07,17,12,36,18.30
2014,07,17,12,37,18.30
2014,07,17,12,38,18.30
2014,07,17,12,39,18.40
2014,07,17,12,40,18.20
2014,07,17,12,41,18.10
2014,07,17,12,42,18.10
2014,07,17,12,43,18.10
2014,07,17,12,44,18.10
2014,07,17,12,45,18.20
2014,07,17,12,46,18.20
2014,07,17,12,47,18.20
2014,07,17,12,48,18.20
2014,07,17,12,49,18.10
2014,07,17,12,50,18.10
2014,07,17,12,51,18.10
2014,07,17,12,52,18.10
2014,07,17,12,53,18.30
2014,07,17,12,54,18.40
2014,07,17,12,55,18.40
2014,07,17,12,56,18.40
2014,07,17,12,57,18.50
2014,07,17,12,58,18.40
2014,07,17,12,59,18.30
2014,07,17,13,00,18.30
2014,07,17,13,01,18.40
2014,07,17,13,02,18.30
2014,07,17,13,03,18.30
2014,07,17,13,04,18.30
2014,07,17,13,05,18.40
2014,07,17,13,06,18.50
2014,07,17,13,07,18.60
2014,07,17,13,08,18.70
2014,07,17,13,09,18.70
2014,07,17,13,10,18.60
2014,07,17,13,11,18.50
2014,07,17,13,12,18.40
2014,07,17,13,13,18.60
2014,07,17,13,14,18.70
2014,07,17,13,15,18.80
2014,07,17,13,16,19.00
2014,07,17,13,17,19.10
2014,07,17,13,18,19.10
2014,07,17,13,19,19.10
2014,07,17,13,20,19.10
2014,07,17,13,21,19.10
2014,07,17,13,22,19.00
2014,07,17,13,23,19.10
2014,07,17,13,24,19.20
2014,07,17,13,25,19.30
2014,07,17,13,26,19.30
2014,07,17,13,27,19.30
2014,07,17,13,28,19.30
2014,07,17,13,29,19.40
2014,07,17,13,30,19.50
2014,07,17,13,31,19.60
2014,07,17,13,32,19.70
2014,07,17,13,33,19.90
2014,07,17,13,34,19.90
2014,07,17,13,35,19.70
2014,07,17,13,36,19.50
2014,07,17,13,37,19.40
2014,07,17,13,38,19.40
2014,07,17,13,39,19.30
2014,07,17,13,40,19.30
2014,07,17,13,41,19.40
2014,07,17,13,42,19.50
2014,07,17,13,43,19.60
2014,07,17,13,44,19.60
2014,07,17,13,45,19.70
2014,07,17,13,46,19.70
2014,07,17,13,47,19.60
2014,07,17,13,48,19.60
2014,07,17,13,49,19.60
2014,07,17,13,50,19.60
2014,07,17,13,51,19.60
2014,07,17,13,52,19.70
2014,07,17,13,53,19.70
2014,07,17,13,54,19.70
2014,07,17,13,55,19.80
2014,07,17,13,56,19.90
2014,07,17,13,57,19.90
2014,07,17,13,58,19.90
2014,07,17,13,59,20.00
2014,07,17,14,00,20.10
2014,07,17,14,01,20.30
2014,07,17,14,02,20.30
2014,07,17,14,03,20.30
2014,07,17,14,04,20.30
2014,07,17,14,05,20.40
2014,07,17,14,06,20.50
2014,07,17,14,07,20.70
2014,07,17,14,08,20.90
2014,07,17,14,09,20.90
2014,07,17,14,10,20.90
2014,07,17,14,11,20.90
2014,07,17,14,12,20.90
2014,07,17,14,13,21.00
2014,07,17,14,14,21.10
2014,07,17,14,15,21.10
2014,07,17,14,16,21.20
2014,07,17,14,17,21.30
2014,07,17,14,18,21.40
2014,07,17,14,19,21.40
2014,07,17,14,20,21.50
2014,07,17,14,21,21.50
2014,07,17,14,22,21.60
2014,07,17,14,23,21.70
2014,07,17,14,24,21.70
2014,07,17,14,25,21.70
2014,07,17,14,26,21.60
2014,07,17,14,27,21.60
2014,07,17,14,28,21.60
2014,07,17,14,29,21.60
2014,07,17,14,30,21.60
2014,07,17,14,31,21.50
2014,07,17,14,32,21.60
2014,07,17,14,33,21.70
2014,07,17,14,34,21.60
2014,07,17,14,35,21.60
2014,07,17,14,36,21.40
2014,07,17,14,37,21.40
2014,07,17,14,38,21.50
2014,07,17,14,39,21.50
2014,07,17,14,40,21.60
2014,07,17,14,41,21.60
2014,07,17,14,42,21.60
2014,07,17,14,43,21.60
2014,07,17,14,44,21.60
2014,07,17,14,45,21.60
2014,07,17,14,46,21.70
2014,07,17,14,47,21.90
2014,07,17,14,48,22.00
2014,07,17,14,49,22.00
2014,07,17,14,50,22.00
2014,07,17,14,51,21.80
2014,07,17,14,52,21.80
2014,07,17,14,53,21.80
2014,07,17,14,54,21.80
2014,07,17,14,55,21.80
2014,07,17,14,56,21.90
2014,07,17,14,57,21.90
2014,07,17,14,58,22.00
2014,07,17,14,59,22.00
2014,07,17,15,00,22.00
2014,07,17,15,01,21.90
2014,07,17,15,02,21.90
2014,07,17,15,03,22.00
2014,07,17,15,04,22.00
2014,07,17,15,05,22.00
2014,07,17,15,06,21.90
2014,07,17,15,07,21.80
2014,07,17,15,08,21.70
2014,07,17,15,09,21.60
2014,07,17,15,10,21.60
2014,07,17,15,11,21.60
2014,07,17,15,12,21.60
2014,07,17,15,13,21.70
2014,07,17,15,14,21.80
2014,07,17,15,15,21.90
2014,07,17,15,16,21.90
2014,07,17,15,17,22.00
2014,07,17,15,18,22.00
2014,07,17,15,19,22.10
2014,07,17,15,20,22.00
2014,07,17,15,21,22.00
2014,07,17,15,22,22.10
2014,07,17,15,23,22.20
2014,07,17,15,24,22.30
2014,07,17,15,25,22.40
2014,07,17,15,26,22.40
2014,07,17,15,27,22.30
2014,07,17,15,28,22.30
2014,07,17,15,29,22.20
2014,07,17,15,30,22.30
2014,07,17,15,31,22.30
2014,07,17,15,32,22.30
2014,07,17,15,33,22.30
2014,07,17,15,34,22.20
2014,07,17,15,35,22.10
2014,07,17,15,36,22.10
2014,07,17,15,37,22.20
2014,07,17,15,38,22.40
2014,07,17,15,39,22.60
2014,07,17,15,40,22.80
2014,07,17,15,41,22.90
2014,07,17,15,42,23.00
2014,07,17,15,43,23.10
2014,07,17,15,44,23.20
2014,07,17,15,45,23.20
2014,07,17,15,46,23.30
2014,07,17,15,47,23.30
2014,07,17,15,48,23.30
2014,07,17,15,49,23.30
2014,07,17,15,50,23.30
2014,07,17,15,51,23.40
2014,07,17,15,52,23.50
2014,07,17,15,53,23.60
2014,07,17,15,54,23.70
2014,07,17,15,55,23.70
2014,07,17,15,56,23.70
2014,07,17,15,57,23.70
2014,07,17,15,58,23.70
2014,07,17,15,59,23.70
2014,07,17,16,00,23.70
2014,07,17,16,01,23.80
2014,07,17,16,02,23.90
2014,07,17,16,03,23.80
2014,07,17,16,04,23.70
2014,07,17,16,05,23.70
2014,07,17,16,06,23.70
2014,07,17,16,07,23.70
2014,07,17,16,08,23.70
2014,07,17,16,09,23.70
2014,07,17,16,10,23.70
2014,07,17,16,11,23.80
2014,07,17,16,12,23.90
2014,07,17,16,13,23.90
2014,07,17,16,14,23.90
2014,07,17,16,15,24.00
2014,07,17,16,16,24.00
2014,07,17,16,17,24.00
2014,07,17,16,18,24.00
2014,07,17,16,19,24.00
2014,07,17,16,20,24.00
2014,07,17,16,21,24.00
2014,07,17,16,22,24.00
2014,07,17,16,23,24.10
2014,07,17,16,24,24.10
2014,07,17,16,25,24.20
2014,07,17,16,26,24.30
2014,07,17,16,27,24.20
2014,07,17,16,28,24.10
2014,07,17,16,29,24.10
2014,07,17,16,30,24.10
2014,07,17,16,31,24.10
2014,07,17,16,32,24.20
2014,07,17,16,33,24.20
2014,07,17,16,34,24.10
2014,07,17,16,35,24.10
2014,07,17,16,36,24.10
2014,07,17,16,37,24.10
2014,07,17,16,38,24.10
2014,07,17,16,39,24.10
2014,07,17,16,40,24.20
2014,07,17,16,41,24.20
2014,07,17,16,42,24.30
2014,07,17,16,43,24.30
2014,07,17,16,44,24.40
2014,07,17,16,45,24.30
2014,07,17,16,46,24.20
2014,07,17,16,47,24.10
2014,07,17,16,48,24.10
2014,07,17,16,49,24.10
2014,07,17,16,50,24.10
2014,07,17,16,51,24.20
2014,07,17,16,52,24.10
2014,07,17,16,53,24.10
2014,07,17,16,54,24.10
2014,07,17,16,55,24.10
2014,07,17,16,56,24.10
2014,07,17,16,57,24.10
2014,07,17,16,58,24.10
2014,07,17,16,59,24.10
2014,07,17,17,00,24.10
2014,07,17,17,01,24.10
2014,07,17,17,02,24.10
2014,07,17,17,03,24.10
2014,07,17,17,04,24.10
2014,07,17,17,05,24.20
2014,07,17,17,06,24.30
2014,07,17,17,07,24.30
2014,07,17,17,08,24.40
2014,07,17,17,09,24.40
2014,07,17,17,10,24.40
2014,07,17,17,11,24.50
2014,07,17,17,12,24.60
2014,07,17,17,13,24.60
2014,07,17,17,14,24.60
2014,07,17,17,15,24.50
2014,07,17,17,16,24.50
2014,07,17,17,17,24.60
2014,07,17,17,18,24.60
2014,07,17,17,19,24.60